Weather History for Spirit of St Louis, MO

Change the Weather History Date:

Saturday, January 26, 2013

  Actual Average Record
Temperature  
Mean Temperature 33 °F -  
Max Temperature 41 °F 38 °F 57 °F (2014)
Min Temperature 25 °F 19 °F 25 °F (2014)
Degree Days  
Heating Degree Days 32    
Moisture  
Dew Point 14 °F    
Average Humidity 51    
Maximum Humidity 78    
Minimum Humidity 32    
Precipitation  
Precipitation 0.00 in - - ()
Sea Level Pressure  
Sea Level Pressure 30.34 in    
Wind  
Wind Speed 3 mph (ENE)    
Max Wind Speed 7 mph    
Max Gust Speed -    
Visibility 10 miles    
Events      
Averages and records for this station are not official NWS values.
T = Trace of Precipitation, MM = Missing Value Source: NWS Daily Summary

Daily Weather History Graph

Daily Weather History Graph

Search for Another Location

Airport:

Trip Planner

Search our weather history database for the weather conditions in past years. The results will help you decide how hot, cold, wet, or windy it might be!

Date:

Astronomy

Jan. 26, 2013 Rise Set
Actual Time 7:12 AM CST 5:17 PM CST
Civil Twilight 6:44 AM CST 5:46 PM CST
Nautical Twilight 6:12 AM CST 6:18 PM CST
Astronomical Twilight 5:41 AM CST 6:49 PM CST
Moon 5:12 PM CST 6:31 AM CST
Length of Visible Light 11h 01m
Length of Day
10h 05m
Full, 100% of the Moon is Illuminated
Jan 26
Full
Jan 26
Full
Feb 3
Last Quarter
Feb 10
New
Feb 17
First Quarter

Hourly Weather History & Observations

Time (CST) Temp. Windchill Dew Point Humidity Pressure Visibility Wind Dir Wind Speed Gust Speed Precip Events Conditions
12:54 AM 28.0 °F - 19.0 °F 69% 30.27 in 10.0 mi Calm Calm - N/A   Clear
1:54 AM 26.1 °F - 19.9 °F 78% 30.28 in 10.0 mi Calm Calm - N/A   Clear
2:54 AM 28.0 °F - 19.0 °F 69% 30.28 in 10.0 mi Calm Calm - N/A   Clear
3:54 AM 32.0 °F 26.4 °F 21.0 °F 64% 30.29 in 10.0 mi North 5.8 mph - N/A   Clear
4:54 AM 28.0 °F 21.7 °F 19.9 °F 72% 30.31 in 10.0 mi NW 5.8 mph - N/A   Clear
5:54 AM 28.0 °F 21.7 °F 19.0 °F 69% 30.35 in 10.0 mi North 5.8 mph - N/A   Clear
6:54 AM 26.1 °F 19.4 °F 14.0 °F 60% 30.37 in 10.0 mi North 5.8 mph - N/A   Scattered Clouds
7:54 AM 25.0 °F 18.1 °F 12.0 °F 58% 30.39 in 10.0 mi NE 5.8 mph - N/A   Mostly Cloudy
8:54 AM 26.1 °F 18.4 °F 10.9 °F 53% 30.41 in 10.0 mi NE 6.9 mph - N/A   Scattered Clouds
9:54 AM 28.0 °F 21.7 °F 9.0 °F 45% 30.43 in 10.0 mi ENE 5.8 mph - N/A   Scattered Clouds
10:54 AM 30.0 °F - 10.0 °F 43% 30.43 in 10.0 mi Calm Calm - N/A   Scattered Clouds
11:54 AM 32.0 °F - 9.0 °F 38% 30.42 in 10.0 mi Calm Calm - N/A   Partly Cloudy
12:54 PM 36.0 °F 32.1 °F 10.9 °F 36% 30.38 in 10.0 mi Variable 4.6 mph - N/A   Clear
1:54 PM 37.9 °F 33.5 °F 12.9 °F 36% 30.35 in 10.0 mi NNE 5.8 mph - N/A   Clear
2:54 PM 39.9 °F 35.8 °F 12.9 °F 33% 30.33 in 10.0 mi NE 5.8 mph - N/A   Partly Cloudy
3:54 PM 41.0 °F 38.0 °F 12.9 °F 32% 30.32 in 10.0 mi NNE 4.6 mph - N/A   Partly Cloudy
4:54 PM 39.0 °F 35.7 °F 10.9 °F 32% 30.32 in 10.0 mi East 4.6 mph - N/A   Scattered Clouds
5:54 PM 36.0 °F 32.1 °F 12.0 °F 37% 30.34 in 10.0 mi East 4.6 mph - N/A   Scattered Clouds
6:54 PM 36.0 °F 32.1 °F 12.9 °F 39% 30.34 in 10.0 mi ESE 4.6 mph - N/A   Scattered Clouds
7:54 PM 33.1 °F 26.9 °F 15.1 °F 48% 30.34 in 10.0 mi ESE 6.9 mph - N/A   Scattered Clouds
8:54 PM 30.9 °F 26.2 °F 15.1 °F 52% 30.33 in 10.0 mi East 4.6 mph - N/A   Clear
9:54 PM 30.0 °F 25.2 °F 15.1 °F 54% 30.34 in 10.0 mi ESE 4.6 mph - N/A   Clear
10:54 PM 28.0 °F 22.8 °F 15.1 °F 58% 30.34 in 10.0 mi East 4.6 mph - N/A   Clear
11:54 PM 28.9 °F 23.9 °F 16.0 °F 58% 30.32 in 10.0 mi East 4.6 mph - N/A   Clear